Location: Quaker Farms
(41.4276°N, 73.1557°W)
Time: 01:16:38
(UTC+00:00)

Altair - Pass Details

Date: 15 June 2021
Orbit: 1501 x 1682 km, 47.2° (Epoch: 23 July)

Event Time Altitude Azimuth Distance (km) Brightness Sun altitude
Rises 23:24:54 0° 290° (WNW) 4,809 12.5 9.7°
Reaches altitude 10° 23:28:00 10° 292° (WNW) 3,846 14.2 9.1°
Maximum altitude 23:37:54 74° 18° (NNE) 1,718 8.0 7.4°
Drops below altitude 10° 23:48:04 10° 103° (ESE) 3,939 9.1 5.7°
Sets 23:51:16 0° 105° (ESE) 4,930 9.5 5.2°
